(122789) = 2000 SP91

Discovered at Socorro on 2000-09-23 by LINEAR.

Orbit

Orbit type: Main Belt

Note: WebGL enabled browser required.

epoch2024-03-31.0
epoch JD2460400.5
perihelion date2025-12-18.81293
perihelion JD2461028.31293
argument of perihelion (°)66.93699
ascending node (°)312.80102
inclination (°)13.31878
eccentricity0.1929389
perihelion distance (AU)2.0913369
Tisserand w.r.t. Jupiter3.4
ΔV w.r.t. Earth (km/sec)9.9
semimajor axis (AU)2.5912993
mean anomaly (°)211.66019
mean daily motion (°/day)0.23628030
aphelion distance (AU)3.091
period (years)4.17
P-vector [x]0.92308948
P-vector [y]0.21011355
P-vector [z]0.32211507
Q-vector [x]-0.34545066
Q-vector [y]0.82111105
Q-vector [z]0.45435723
absolute magnitude16.01
phase slope0.15
uncertainty0
referenceMPEC 2024-C115
observations used735
oppositions11
arc length (days)8285
first opposition used2000
last opposition used2023
residual rms (arc-secs)0.68
perturbers coarse indicatorM-v
perturbers precise indicator003Ek
first observation date used2000-08-03.0
last observation date used2023-04-10.0
computer nameMPCLINUX
JD of orbit computation2456670.724519
perihelion JD uncertainty (days)2.1219E-04
argument of perihelion uncertainty (°)7.2777E-05
ascending node uncertainty (°)3.3053E-05
inclination uncertainty (°)1.6287E-05
eccentricity uncertainty 1.2578E-07
perihelion distance uncertainty (AU)3.0968E-07
Minimum Orbit Intersection Distances (in AU)
for orbit epoch: 2460200.5, reference: E2024-CB5
Mercury1.7628
Venus1.40259
Earth1.13031
Mars0.77811
Jupiter2.51523
Saturn6.44119
Uranus15.4773
Neptune27.6284

Observations

754 total observations over interval: 2000 08 03.36571 – 2023 04 10.340956
These data are available for download (format description).

Date (UT) J2000 RA J2000 Dec Magn Location Ref
2000 08 03.36571 23 14 27.43 +03 46 37.5 19.2   704 – Lincoln Laboratory ETS, New Mexico MPS 21207
2000 08 03.39395 23 14 26.68 +03 46 51.1 19.5   704 – Lincoln Laboratory ETS, New Mexico MPS 21207
2000 08 03.40806 23 14 26.16 +03 46 56.8 19.4   704 – Lincoln Laboratory ETS, New Mexico MPS 21207
2000 08 03.42221 23 14 25.90 +03 47 03.6 19.5   704 – Lincoln Laboratory ETS, New Mexico MPS 21207
2000 09 01.26910 22 51 29.37 +06 21 07.0 19.3   704 – Lincoln Laboratory ETS, New Mexico MPS 21207
2000 09 01.28279 22 51 28.48 +06 21 07.3 19.0   704 – Lincoln Laboratory ETS, New Mexico MPS 21207
2000 09 01.30917 22 51 26.59 +06 21 10.4 19.0   704 – Lincoln Laboratory ETS, New Mexico MPS 21207
2000 09 03.25196 22 49 24.26 +06 25 56.2 18.9   704 – Lincoln Laboratory ETS, New Mexico MPS 21207
2000 09 03.26462 22 49 23.43 +06 25 58.4 18.9   704 – Lincoln Laboratory ETS, New Mexico MPS 21207
2000 09 03.27727 22 49 22.62 +06 26 00.4 18.4   704 – Lincoln Laboratory ETS, New Mexico MPS 21207
2000 09 03.28997 22 49 21.74 +06 26 02.5 18.4   704 – Lincoln Laboratory ETS, New Mexico MPS 21207
2000 09 03.30269 22 49 20.94 +06 26 03.7 18.6   704 – Lincoln Laboratory ETS, New Mexico MPS 21207
2000 09 22.14832 22 30 35.95 +06 40 10.8 18.3 R 699 – Lowell Observatory-LONEOS MPS 30137
2000 09 22.16991 22 30 34.76 +06 40 09.2   699 – Lowell Observatory-LONEOS MPS 30137
2000 09 22.19152 22 30 33.59 +06 40 08.7   699 – Lowell Observatory-LONEOS MPS 30137
2000 09 22.21318 22 30 32.43 +06 40 07.9   699 – Lowell Observatory-LONEOS MPS 30137
2000 09 23.18847 22 29 43.37 +06 39 39.5 18.4   704 – Lincoln Laboratory ETS, New Mexico MPS 19913
2000 09 23.20294 22 29 42.58 +06 39 37.8 18.7   704 – Lincoln Laboratory ETS, New Mexico MPS 19913
2000 09 23.21793 22 29 41.81 +06 39 37.7 18.2   704 – Lincoln Laboratory ETS, New Mexico MPS 19913
2000 09 23.24708 22 29 40.27 +06 39 36.4 18.5   704 – Lincoln Laboratory ETS, New Mexico MPS 19913
2000 09 27.18440 22 26 36.88 +06 36 48.9 19.0   704 – Lincoln Laboratory ETS, New Mexico MPS 19913
2000 09 27.21451 22 26 35.54 +06 36 47.0 19.2   704 – Lincoln Laboratory ETS, New Mexico MPS 19913
2000 09 27.22959 22 26 34.84 +06 36 46.1 18.7   704 – Lincoln Laboratory ETS, New Mexico MPS 19913
2000 09 27.24464 22 26 34.17 +06 36 45.3 19.2   704 – Lincoln Laboratory ETS, New Mexico MPS 19913
2000 09 28.18825 22 25 54.22 +06 35 57.1 18.8   704 – Lincoln Laboratory ETS, New Mexico MPS 19913
2000 09 28.20340 22 25 53.54 +06 35 57.1 19.2   704 – Lincoln Laboratory ETS, New Mexico MPS 19913
2000 09 28.21855 22 25 52.85 +06 35 56.5 19.1   704 – Lincoln Laboratory ETS, New Mexico MPS 19913
2000 09 28.24885 22 25 51.49 +06 35 53.7 19.0   704 – Lincoln Laboratory ETS, New Mexico MPS 19913
2000 10 03.17861 22 22 49.00 +06 31 06.2 19.0   704 – Lincoln Laboratory ETS, New Mexico MPS 19913
2000 10 03.19381 22 22 48.39 +06 31 04.1 19.2   704 – Lincoln Laboratory ETS, New Mexico MPS 19913
2000 10 03.20860 22 22 47.94 +06 31 03.9 19.3   704 – Lincoln Laboratory ETS, New Mexico MPS 19913
2000 10 03.22327 22 22 47.40 +06 31 03.2 18.5   704 – Lincoln Laboratory ETS, New Mexico MPS 19913
2000 10 03.23814 22 22 46.92 +06 31 01.4 19.2   704 – Lincoln Laboratory ETS, New Mexico MPS 19913
2000 10 30.16263 22 20 42.86 +06 18 11.6 18.8   704 – Lincoln Laboratory ETS, New Mexico MPS 21207
2000 10 30.17879 22 20 43.08 +06 18 12.8 19.3   704 – Lincoln Laboratory ETS, New Mexico MPS 21207
2000 10 30.19263 22 20 43.51 +06 18 12.0 19.1   704 – Lincoln Laboratory ETS, New Mexico MPS 21207
2000 10 30.22102 22 20 44.14 +06 18 12.7 19.4   704 – Lincoln Laboratory ETS, New Mexico MPS 21207
2002 01 13.40104 09 53 40.40 +12 04 53.9 20.2   704 – Lincoln Laboratory ETS, New Mexico MPS 49090
2002 01 13.41623 09 53 39.78 +12 04 52.5 20.0   704 – Lincoln Laboratory ETS, New Mexico MPS 49090
2002 01 13.43142 09 53 39.02 +12 04 52.0 20.1   704 – Lincoln Laboratory ETS, New Mexico MPS 49090
2002 01 22.30308 09 46 06.57 +12 01 25.7 19.6   704 – Lincoln Laboratory ETS, New Mexico MPS 49090
2002 01 22.31813 09 46 05.77 +12 01 24.7 19.3   704 – Lincoln Laboratory ETS, New Mexico MPS 49090
2002 01 22.33306 09 46 04.84 +12 01 24.3 20.1   704 – Lincoln Laboratory ETS, New Mexico MPS 49090
2002 01 22.36299 09 46 03.11 +12 01 24.9 19.6   704 – Lincoln Laboratory ETS, New Mexico MPS 49090
2002 02 07.31226 09 29 35.99 +12 07 31.8 19.2   704 – Lincoln Laboratory ETS, New Mexico MPS 54686
2002 02 07.32826 09 29 34.86 +12 07 32.7 19.5   704 – Lincoln Laboratory ETS, New Mexico MPS 54686
2002 02 07.35741 09 29 33.06 +12 07 34.5 19.1   704 – Lincoln Laboratory ETS, New Mexico MPS 54686
2002 02 07.37318 09 29 31.89 +12 07 34.6 19.7   704 – Lincoln Laboratory ETS, New Mexico MPS 54686
2002 02 11.24215 09 25 22.11 +12 10 12.5 19.2   704 – Lincoln Laboratory ETS, New Mexico MPS 49090
2002 02 11.25627 09 25 21.18 +12 10 13.2 19.3   704 – Lincoln Laboratory ETS, New Mexico MPS 49090
2002 02 11.27039 09 25 20.24 +12 10 14.1 19.3   704 – Lincoln Laboratory ETS, New Mexico MPS 49090
2002 02 11.28451 09 25 19.31 +12 10 14.3 19.2   704 – Lincoln Laboratory ETS, New Mexico MPS 49090
2002 02 11.29864 09 25 18.38 +12 10 16.2 20.8   704 – Lincoln Laboratory ETS, New Mexico MPS 49090
2002 02 16.35903 09 19 58.51 +12 13 41.8 20.0   644 – Palomar Mountain/NEAT MPS 51977
2002 02 16.38236 09 19 57.01 +12 13 42.6 20.2   644 – Palomar Mountain/NEAT MPS 51977
2002 02 16.41519 09 19 54.93 +12 13 43.8 20.4   644 – Palomar Mountain/NEAT MPS 51977
2002 03 13.14396 08 59 51.33 +12 19 39.0 20.1   704 – Lincoln Laboratory ETS, New Mexico MPS 51977
2002 03 13.15702 08 59 50.90 +12 19 39.8 20.1   704 – Lincoln Laboratory ETS, New Mexico MPS 51977
2002 03 13.16995 08 59 50.43 +12 19 38.6 19.7   704 – Lincoln Laboratory ETS, New Mexico MPS 51977
2002 03 15.11500 08 58 51.99 +12 18 53.0 19.1   704 – Lincoln Laboratory ETS, New Mexico MPS 51977
2002 03 15.15308 08 58 50.86 +12 18 49.7 20.3   704 – Lincoln Laboratory ETS, New Mexico MPS 51977
2002 03 15.16570 08 58 50.39 +12 18 49.2 19.9   704 – Lincoln Laboratory ETS, New Mexico MPS 51977
2004 07 16.33489 21 39 04.33 -15 11 21.7 19.4 C 704 – Lincoln Laboratory ETS, New Mexico MPS 291231
2004 07 16.34568 21 39 03.87 -15 11 19.8 19.1 C 704 – Lincoln Laboratory ETS, New Mexico MPS 291231
2004 07 16.35638 21 39 03.29 -15 11 18.5 18.9 C 704 – Lincoln Laboratory ETS, New Mexico MPS 291231
2004 07 16.36720 21 39 02.91 -15 11 15.9 19.2 C 704 – Lincoln Laboratory ETS, New Mexico MPS 291231
2004 07 16.37796 21 39 02.42 -15 11 14.2 19.3 C 704 – Lincoln Laboratory ETS, New Mexico MPS 291231
2004 07 27.35091 21 29 44.95 -14 38 55.4 18.7   704 – Lincoln Laboratory ETS, New Mexico MPS 110673
2004 07 27.36170 21 29 44.25 -14 38 54.4 19.1   704 – Lincoln Laboratory ETS, New Mexico MPS 110673
2004 07 27.38348 21 29 42.93 -14 38 49.5 19.1   704 – Lincoln Laboratory ETS, New Mexico MPS 110673
2004 07 27.39437 21 29 42.27 -14 38 48.5 18.6   704 – Lincoln Laboratory ETS, New Mexico MPS 110673
2004 08 07.19317 21 18 24.51 -14 09 37.8 18.0   644 – Palomar Mountain/NEAT MPS 110807
2004 08 07.21412 21 18 23.08 -14 09 34.6 17.9   644 – Palomar Mountain/NEAT MPS 110807
2004 08 07.24183 21 18 21.21 -14 09 30.4 18.2   644 – Palomar Mountain/NEAT MPS 110807
2004 08 08.24907 21 17 14.38 -14 06 49.6 19.1   704 – Lincoln Laboratory ETS, New Mexico MPS 110988
2004 08 08.25845 21 17 13.72 -14 06 48.6 18.6   704 – Lincoln Laboratory ETS, New Mexico MPS 110988
2004 08 08.26783 21 17 13.07 -14 06 47.0 18.7   704 – Lincoln Laboratory ETS, New Mexico MPS 110988
2004 08 08.28676 21 17 11.75 -14 06 44.7 18.9   704 – Lincoln Laboratory ETS, New Mexico MPS 110988
2004 08 09.21953 21 16 09.85 -14 04 14.6 18.0 R 699 – Lowell Observatory-LONEOS MPS 110988
2004 08 09.23578 21 16 08.76 -14 04 12.2   699 – Lowell Observatory-LONEOS MPS 110988
2004 08 09.25204 21 16 07.60 -14 04 09.3   699 – Lowell Observatory-LONEOS MPS 110988
2004 08 09.26828 21 16 06.55 -14 04 07.1   699 – Lowell Observatory-LONEOS MPS 110988
2004 09 07.17590 20 48 37.73 -12 39 06.6 19.5   704 – Lincoln Laboratory ETS, New Mexico MPS 112572
2004 09 07.18714 20 48 37.27 -12 39 04.5 19.8   704 – Lincoln Laboratory ETS, New Mexico MPS 112572
